Location: Borotín
(49.5055°N, 14.6142°E)
Time: 12:21:48
(UTC+00:00)

CZ-4C R/B - Pass Details

Date: 27 May 2022
Orbit: 582 x 1419 km, 63.4° (Epoch: 26 June)

Event Time Altitude Azimuth Distance (km) Brightness Sun altitude
Rises 00:48:25 0° 308° (NW) 3,966 5.8 -15.1°
Reaches altitude 10° 00:51:53 10° 292° (WNW) 3,143 5.1 -14.9°
Maximum altitude 00:56:52 19° 251° (WSW) 2,681 4.4 -14.5°
Enters shadow 00:59:29 16° 229° (SW) 2,910 4.4 -14.3°
